Weather in Nikitinka

Russia / Samara Oblast     53°56′09″N   50°33′41″E
temp.,
°C
wind,
m/s
gust,
m/s
humid.,
%
clouds,
%
prec.,
mm/h
press.,
hPa
HPBL,
m
1 march, mon
mon101:00−19nnw339888 0.0 101666
04:00−21nnw339987 0.1 101750
07:00−22nw339985 0.0 101926
10:00−20nnw369779 0.0 1021203
13:00−17nw359461 0.0 1021277
16:00−14wnw359379 0.0 1022345
19:00−19w2210085 0.0 102120
22:00−19sw239864 0.0 102121
2 march, tue
tue201:00−17ssw479869 0.0 1018130
04:00−14ssw5109684 0.1 1015272
07:00−11ssw61195100 0.3 1011413
10:00−7sw71394100 1.1 1008517
13:00−2sw81394100 0.7 1004645
16:000sw81397100 1.9 1002721
19:000w71198100 1.6 1000597
22:00−1wnw51094100 1.9 1000539
3 march, wed
wed301:00−6w479758 0.0 1001113
04:00−9w349731 0.0 100273
07:00−9w369759 0.1 1002108
10:00−7wnw379671 0.1 1003249
13:00−4w4793100 0.1 1003476
16:00−3wnw589199 0.2 1004693
19:00−6nw599199 0.1 1005455
22:00−8wnw5129499 0.2 1007407
4 march, thu
thu401:00−11wnw489695 0.0 1007144
04:00−13w479688 0.1 100892
07:00−11wsw499633 0.1 1008207
10:00−8wsw5109464 0.2 1007355
13:00−4sw61091100 0.1 1006649
16:00−2sw81391100 0.2 1004935
19:00−2sw91795100 0.8 1001851
22:00−1sw101792100 1.8 999946
5 march, fri
fri501:000sw101791100 0.3 9971013
04:00−1wsw101791100 0.4 996966
07:00−1wsw101695100 0.6 999939
10:00−5wnw7138582 1.0 1004567
13:00−6wnw59870 0.0 1007498
16:00−6w37900 0.0 1010311
19:00−11wnw33920 0.0 101222
22:00−13wnw229211 0.0 101421